SCP
-0 -0 0 0 0 0 0 0 0 2 4 3 3 3 2 1 1 1 1 1 1 1 1 1 1 1 1 1 1 1 1 1 1 1 0 0 0 0 0 0 0 0 0
0 0 -0 0 0 0 0 0 0 2 4 3 5 4 4 1 1 1 1 1 1 1 1 1 1 1 1 1 1 1 2 2 2 1 1 1 0 0 0 0 0 0 0
0 0 0 0 0 0 0 0 0 1 4 3 4 4 4 2 1 1 1 1 1 1 1 1 2 1 1 2 1 2 1 1 1 1 1 1 0 0 0 0 0 0 0
0 0 0 0 0 0 0 0 0 0 3 3 3 3 5 3 2 2 1 1 1 1 1 2 2 2 2 2 1 1 2 2 1 1 1 0 1 1 0 0 0 0 0
0 0 0 0 0 0 0 0 0 0 2 5 4 4 4 3 2 2 1 1 2 1 2 3 3 3 3 2 1 1 1 2 2 1 1 1 1 0 0 0 0 0 0
0 0 0 0 0 0 0 0 0 0 3 4 5 4 3 3 4 4 4 3 2 2 3 2 1 1 0 0 0 0 1 1 1 1 1 1 1 1 1 0 0 0 0
0 0 0 0 0 0 0 0 0 0 0 0 0 6 4 5 4 3 3 3 2 1 1 1 0 0 0 0 0 0 1 1 1 0 1 2 1 1 1 1 1 0 0
0 0 -0 -0 0 0 0 0 0 0 0 0 0 0 0 0 0 0 2 3 2 2 1 1 1 1 0 1 1 1 0 1 1 1 1 2 2 1 1 1 0 0 0
-0 -0 -0 -0 0 0 0 0 0 0 0 0 0 0 0 0 0 0 0 0 1 1 1 1 2 1 1 1 1 1 1 1 1 1 1 2 2 2 1 1 1 1 0
-0 -0 -0 -0 -0 0 0 0 0 0 0 0 0 0 0 0 0 0 0 0 0 0 0 0 0 0 1 1 1 1 1 1 1 1 1 3 2 2 1 1 1 0 0
-0 -0 -0 -0 -0 0 0 0 0 0 0 0 0 0 0 0 0 0 0 0 0 0 0 0 0 0 0 0 1 1 1 1 1 1 1 1 2 2 2 2 1 1 0
-0 -0 -0 -0 -0 0 0 0 0 0 0 0 0 0 0 0 0 0 0 0 0 0 0 0 0 0 0 0 0 0 1 1 0 0 0 0 1 1 1 0 0 1 0
-0 -0 -0 -0 -0 -0 0 0 0 0 0 0 0 0 0 0 0 0 0 0 0 0 0 0 0 0 0 0 0 0 0 0 0 0 0 0 1 1 1 0 0 0 0
-0 -0 -0 -0 -0 -0 0 0 0 0 0 0 0 0 0 0 0 0 0 0 0 0 0 0 0 0 0 0 0 0 0 0 0 0 0 0 0 1 0 0 0 0 0
-0 -0 -0 -0 -0 0 0 0 0 0 0 0 0 0 0 0 0 0 0 0 0 0 0 0 0 0 0 0 0 0 0 0 0 0 0 0 0 0 0 0 0 0 0
0 0 -0 -0 -0 -0 -0 0 0 0 0 0 0 0 0 0 0 0 0 0 0 0 0 0 0 0 0 0 0 0 0 0 0 0 0 0 0 0 0 0 0 0 0
-0 -0 -0 -0 0 0 0 0 0 0 0 0 0 0 0 0 0 0 0 0 0 0 0 0 0 0 0 0 0 0 0 0 0 0 0 0 0 0 0 0 0 0 0
-0 -0 -0 -0 0 0 0 0 0 0 0 0 0 0 0 0 0 0 0 0 0 0 0 0 0 0 0 0 0 0 0 0 0 0 0 0 0 0 0 0 0 0 0
-0 -0 -0 -0 -0 -0 -0 -0 0 0 0 0 0 0 0 0 0 0 0 0 0 0 0 0 0 0 0 0 0 0 0 0 0 0 0 0 0 0 0 0 0 0 0
0 -0 -0 -0 -0 -0 -0 -0 -0 -0 -0 -0 -0 -0 0 0 0 0 0 0 0 0 0 0 0 0 0 0 0 0 0 0 0 0 0 0 0 0 0 0 0 0 0
-0 0 0 -0 -0 -0 -0 -0 -0 -0 -0 0 0 0 0 0 0 0 0 0 0 0 0 0 0 0 0 0 0 0 0 0 0 0 0 0 0 0 0 0 0 0 0
0 0 0 0 0 0 0 -0 -0 0 0 0 0 0 0 0 0 0 0 0 -0 -0 0 0 0 0 0 0 0 0 0 0 0 0 0 0 0 0 0 0 0 0 0
0 0 0 0 0 0 0 0 0 0 0 0 0 0 0 0 0 0 0 0 0 0 0 0 0 0 0 0 0 0 0 0 0 0 0 0 0 0 0 0 0 0 0
0 0 0 0 0 0 0 0 0 0 0 0 0 0 0 0 0 0 0 0 0 0 0 0 0 0 0 0 0 0 0 0 0 0 0 0 0 0 0 0 0 0 0
0 0 0 0 0 0 0 0 0 0 0 0 0 0 0 0 0 0 0 0 0 0 0 0 0 0 0 0 0 0 0 0 0 0 0 0 0 0 0 0 0 0 0
0 0 0 0 0 0 0 0 0 0 0 0 0 0 0 0 0 0 0 0 0 0 0 0 0 -0 -0 0 0 0 0 0 0 0 0 0 0 0 0 0 0 0 0
Wind_Speed_500mb
71 70 87 78 75 78 75 70 69 77 76 84 101 101 93 88 71 67 75 74 80 83 80 72 62 61 53 52 60 60 57 52 41 44 43 44 45 45 43 40 35 33 31
78 73 71 86 78 79 77 75 74 79 79 82 105 108 104 89 84 79 74 76 76 78 78 72 54 55 49 50 61 62 60 55 56 47 43 35 48 55 50 42 41 38 34
88 77 76 74 82 79 81 76 78 83 82 82 82 98 89 59 56 59 66 65 70 76 73 66 55 48 51 51 59 59 59 57 60 52 35 22 31 20 28 46 41 41 48
80 85 90 86 80 83 78 74 77 81 83 79 84 96 108 84 76 79 59 57 65 62 62 63 62 60 57 54 50 50 57 51 56 61 62 53 29 24 19 21 27 32 33
74 75 57 61 71 69 72 66 73 76 82 80 83 89 98 94 65 55 54 63 69 61 65 65 67 64 56 42 30 35 44 55 59 61 67 67 66 69 49 41 22 29 36
70 58 51 31 12 15 40 50 54 67 79 84 81 79 83 63 57 60 63 58 57 60 67 73 76 69 55 26 29 57 50 50 62 75 67 66 63 63 55 52 53 44 37
70 58 53 45 35 29 15 19 46 62 65 76 80 72 63 63 65 60 63 57 48 52 61 72 74 75 64 72 78 85 82 60 65 85 85 75 74 66 54 60 49 43 42
73 67 59 53 52 49 44 35 32 50 65 66 71 68 76 75 61 57 50 47 42 43 47 64 67 65 72 62 55 65 68 69 81 90 87 82 77 78 57 64 56 42 47
78 76 68 63 60 55 51 47 43 50 53 51 48 45 52 49 43 40 44 49 53 59 57 55 55 66 64 61 66 73 68 65 81 93 92 84 78 78 64 67 65 50 46
77 78 72 65 62 60 53 51 51 50 47 42 37 35 35 29 35 39 42 50 53 53 51 54 64 67 70 75 82 88 86 89 95 97 93 90 79 74 70 74 68 58 57
71 75 69 71 70 63 55 54 55 51 48 31 29 38 32 31 30 27 26 33 40 48 54 56 61 68 70 73 79 85 89 89 88 91 93 92 89 81 84 78 68 66 62
69 74 74 67 68 66 63 68 63 60 51 42 35 28 21 21 21 18 16 19 26 36 45 52 58 63 68 71 76 79 86 90 89 93 90 92 87 86 86 80 75 74 74
75 83 87 88 83 79 79 72 65 58 49 48 47 34 31 21 13 3 6 15 28 37 46 53 60 66 69 72 74 73 71 76 84 87 90 91 86 84 87 83 74 77 77
69 76 82 82 82 78 77 73 64 58 52 44 41 33 29 30 24 16 17 23 31 40 46 51 59 67 69 70 70 67 66 69 75 81 85 88 87 90 89 83 77 79 77
65 67 70 70 73 75 70 66 59 57 49 41 43 40 33 29 28 25 25 29 34 39 45 53 57 62 65 64 62 65 64 63 72 80 81 90 86 89 87 80 79 79 81
53 53 55 57 61 62 59 56 59 49 49 47 43 40 34 23 29 27 30 35 36 38 43 47 51 56 56 54 58 62 66 62 65 72 77 82 86 81 83 78 79 77 80
52 51 49 50 51 54 56 60 56 48 46 50 39 47 48 43 42 41 39 40 42 42 40 38 42 48 53 53 53 59 70 72 74 71 72 78 85 80 82 79 72 75 76
50 50 47 45 46 47 50 42 35 38 43 38 45 51 51 49 48 46 43 41 42 45 47 47 44 44 42 44 52 62 71 72 69 77 75 76 85 79 81 77 76 77 71
40 42 44 50 53 53 48 47 51 50 52 55 51 54 54 50 52 50 49 50 50 49 48 46 46 46 40 44 51 58 63 62 69 69 70 75 83 79 75 74 79 86 78
35 38 38 38 46 51 49 50 52 53 56 57 57 57 55 56 57 56 56 53 50 49 49 44 40 41 40 40 42 52 63 60 57 57 71 80 75 79 72 78 78 82 80
35 35 34 39 45 47 48 48 48 53 52 51 51 51 53 54 55 54 55 59 53 46 49 49 43 40 41 40 37 44 61 48 54 59 64 66 70 66 73 75 77 81 73
38 39 37 37 40 44 47 47 48 46 46 47 48 50 53 54 54 54 56 60 63 61 62 61 61 51 45 45 42 38 45 59 57 62 66 64 65 70 69 71 71 72 72
35 36 38 39 41 45 46 44 44 43 43 43 45 47 50 52 56 61 64 60 65 70 72 70 70 71 67 52 44 42 38 41 48 56 64 69 63 70 69 71 67 77 81
35 38 40 42 46 48 47 47 47 44 43 45 46 47 50 52 54 58 64 65 70 70 71 74 69 70 70 71 58 46 39 35 37 41 51 59 72 85 73 71 69 76 74
31 34 36 37 40 42 43 43 44 44 42 40 42 46 44 48 47 49 57 59 60 62 63 65 62 61 66 67 64 55 45 26 23 23 27 39 51 62 70 70 73 66 68
25 26 30 32 36 40 41 43 43 43 42 39 41 42 41 42 44 45 40 41 49 53 55 53 55 53 47 53 53 46 39 25 9 10 7 16 29 34 44 44 47 52 57
Wind_Direction_500mb
296 279 278 269 259 257 251 243 230 223 219 219 219 216 217 219 211 211 215 218 220 222 224 226 225 222 217 217 226 228 228 227 223 224 236 246 249 250 252 248 244 248 248
297 293 277 268 262 254 251 243 234 222 215 219 223 223 223 221 224 222 224 224 225 224 226 227 222 225 217 220 227 226 226 226 228 224 233 246 254 252 247 244 244 245 239
298 293 279 268 262 254 249 244 234 222 215 217 210 214 217 210 212 221 220 220 223 226 227 226 221 223 223 227 233 231 232 227 233 225 226 225 243 249 249 240 238 243 248
320 303 281 265 261 253 250 243 231 221 217 211 209 206 211 206 214 220 218 216 220 218 225 223 226 226 229 230 237 240 240 233 238 235 237 237 243 221 244 243 240 231 244
333 335 325 264 259 251 244 244 230 222 215 214 209 207 210 216 216 213 217 219 224 219 223 222 223 224 219 218 246 266 262 253 248 250 242 240 241 241 245 254 233 238 250
345 353 9 3 293 246 246 235 227 220 213 211 204 204 205 202 201 207 213 222 226 224 227 229 227 221 205 200 253 272 273 267 267 258 247 239 235 239 234 239 242 242 249
349 360 20 16 20 69 101 153 190 195 192 198 197 197 198 199 205 215 223 228 227 224 223 225 227 229 230 257 257 240 241 253 256 260 251 250 244 246 242 243 243 237 243
356 6 17 26 32 55 65 92 123 158 174 183 186 193 197 206 199 211 220 225 220 223 230 227 230 237 242 237 242 220 227 241 250 259 254 252 249 249 241 249 251 237 242
359 7 19 27 34 43 56 81 88 109 129 140 150 156 166 175 184 207 211 210 201 210 206 209 220 231 236 235 225 222 231 243 251 254 255 252 250 248 242 247 243 238 240
2 9 18 28 36 41 45 51 72 81 95 105 127 127 135 157 185 190 195 202 203 206 215 218 221 226 222 219 228 234 242 248 252 254 250 250 248 245 241 249 247 241 245
4 8 15 33 39 46 45 48 66 75 79 71 89 103 130 145 158 164 185 201 212 220 226 230 231 234 239 241 243 246 248 251 254 253 249 251 248 243 248 249 248 240 238
13 19 17 29 34 37 39 49 55 64 62 56 63 75 98 122 139 162 191 223 235 242 241 241 245 248 248 249 249 250 249 248 250 250 252 247 245 246 247 249 252 245 241
16 23 24 28 35 37 43 44 52 60 63 55 54 56 57 50 54 51 271 275 274 265 257 258 256 257 257 256 254 253 250 251 248 246 248 250 244 241 244 249 252 245 239
14 19 19 25 32 34 35 38 42 45 47 48 44 33 33 30 15 345 314 291 277 273 265 261 261 260 261 260 258 253 253 248 249 248 247 249 248 241 249 248 248 244 240
13 14 14 18 29 32 32 32 41 40 34 36 41 32 36 24 12 358 340 324 310 297 284 273 265 262 261 261 261 260 252 252 253 252 248 250 245 245 247 247 244 242 242
8 12 15 16 21 26 30 26 34 29 26 42 44 22 35 27 11 1 350 336 321 311 300 290 281 274 268 262 258 252 248 250 254 252 252 249 249 247 245 244 245 247 245
2 7 11 14 19 22 20 27 28 20 25 30 19 27 28 23 18 9 355 343 336 327 318 305 294 283 277 275 268 251 242 240 248 247 249 246 241 247 244 242 247 247 249
360 1 5 11 17 22 26 24 20 20 28 25 22 24 23 21 19 13 2 351 344 341 337 328 317 305 297 280 265 253 238 240 245 249 249 246 243 248 244 242 241 238 238
1 1 3 9 15 19 23 27 26 23 23 24 20 22 20 17 16 11 3 2 357 351 347 338 327 320 306 290 270 254 242 245 243 253 249 247 245 251 249 244 239 235 228
6 4 2 6 15 18 20 26 26 26 27 24 23 22 19 18 17 14 7 7 6 359 351 347 338 329 316 306 289 256 247 246 250 252 245 247 248 249 247 237 237 233 222
6 9 11 10 12 16 19 23 23 25 23 23 23 22 21 20 19 18 15 15 15 7 4 2 355 345 338 323 309 266 259 256 248 255 255 253 251 251 240 236 241 223 220
6 9 11 12 11 15 17 19 21 18 20 23 26 26 24 22 19 18 19 19 16 17 16 12 9 1 352 343 331 314 266 262 259 261 258 258 255 250 252 237 228 223 219
8 9 8 7 10 13 13 14 14 13 16 18 23 25 26 23 21 19 19 15 15 15 13 14 9 5 2 355 347 337 310 279 265 261 259 251 255 240 241 221 218 225 217
6 7 10 11 9 11 8 7 8 8 9 12 16 18 22 23 22 23 22 17 15 15 11 9 8 5 2 2 359 354 339 326 301 272 259 256 242 231 217 214 208 218 221
9 7 8 9 9 8 5 3 6 8 9 8 10 13 15 19 22 25 23 23 22 17 13 11 6 1 3 359 356 353 348 345 325 275 228 217 210 203 207 204 212 207 202
13 11 9 9 9 11 9 7 8 8 9 10 12 11 13 16 16 18 23 23 25 25 24 20 15 12 2 1 1 0 356 343 12 288 224 162 170 179 177 187 188 186 196
Wind_Speed_850mb
71 70 87 78 75 78 75 70 69 77 76 84 101 101 93 88 71 67 75 74 80 83 80 72 62 61 53 52 60 60 57 52 41 44 43 44 45 45 43 40 35 33 31
78 73 71 86 78 79 77 75 74 79 79 82 105 108 104 89 84 79 74 76 76 78 78 72 54 55 49 50 61 62 60 55 56 47 43 35 48 55 50 42 41 38 34
88 77 76 74 82 79 81 76 78 83 82 82 82 98 89 59 56 59 66 65 70 76 73 66 55 48 51 51 59 59 59 57 60 52 35 22 31 20 28 46 41 41 48
80 85 90 86 80 83 78 74 77 81 83 79 84 96 108 84 76 79 59 57 65 62 62 63 62 60 57 54 50 50 57 51 56 61 62 53 29 24 19 21 27 32 33
74 75 57 61 71 69 72 66 73 76 82 80 83 89 98 94 65 55 54 63 69 61 65 65 67 64 56 42 30 35 44 55 59 61 67 67 66 69 49 41 22 29 36
70 58 51 31 12 15 40 50 54 67 79 84 81 79 83 63 57 60 63 58 57 60 67 73 76 69 55 26 29 57 50 50 62 75 67 66 63 63 55 52 53 44 37
70 58 53 45 35 29 15 19 46 62 65 76 80 72 63 63 65 60 63 57 48 52 61 72 74 75 64 72 78 85 82 60 65 85 85 75 74 66 54 60 49 43 42
73 67 59 53 52 49 44 35 32 50 65 66 71 68 76 75 61 57 50 47 42 43 47 64 67 65 72 62 55 65 68 69 81 90 87 82 77 78 57 64 56 42 47
78 76 68 63 60 55 51 47 43 50 53 51 48 45 52 49 43 40 44 49 53 59 57 55 55 66 64 61 66 73 68 65 81 93 92 84 78 78 64 67 65 50 46
77 78 72 65 62 60 53 51 51 50 47 42 37 35 35 29 35 39 42 50 53 53 51 54 64 67 70 75 82 88 86 89 95 97 93 90 79 74 70 74 68 58 57
71 75 69 71 70 63 55 54 55 51 48 31 29 38 32 31 30 27 26 33 40 48 54 56 61 68 70 73 79 85 89 89 88 91 93 92 89 81 84 78 68 66 62
69 74 74 67 68 66 63 68 63 60 51 42 35 28 21 21 21 18 16 19 26 36 45 52 58 63 68 71 76 79 86 90 89 93 90 92 87 86 86 80 75 74 74
75 83 87 88 83 79 79 72 65 58 49 48 47 34 31 21 13 3 6 15 28 37 46 53 60 66 69 72 74 73 71 76 84 87 90 91 86 84 87 83 74 77 77
69 76 82 82 82 78 77 73 64 58 52 44 41 33 29 30 24 16 17 23 31 40 46 51 59 67 69 70 70 67 66 69 75 81 85 88 87 90 89 83 77 79 77
65 67 70 70 73 75 70 66 59 57 49 41 43 40 33 29 28 25 25 29 34 39 45 53 57 62 65 64 62 65 64 63 72 80 81 90 86 89 87 80 79 79 81
53 53 55 57 61 62 59 56 59 49 49 47 43 40 34 23 29 27 30 35 36 38 43 47 51 56 56 54 58 62 66 62 65 72 77 82 86 81 83 78 79 77 80
52 51 49 50 51 54 56 60 56 48 46 50 39 47 48 43 42 41 39 40 42 42 40 38 42 48 53 53 53 59 70 72 74 71 72 78 85 80 82 79 72 75 76
50 50 47 45 46 47 50 42 35 38 43 38 45 51 51 49 48 46 43 41 42 45 47 47 44 44 42 44 52 62 71 72 69 77 75 76 85 79 81 77 76 77 71
40 42 44 50 53 53 48 47 51 50 52 55 51 54 54 50 52 50 49 50 50 49 48 46 46 46 40 44 51 58 63 62 69 69 70 75 83 79 75 74 79 86 78
35 38 38 38 46 51 49 50 52 53 56 57 57 57 55 56 57 56 56 53 50 49 49 44 40 41 40 40 42 52 63 60 57 57 71 80 75 79 72 78 78 82 80
35 35 34 39 45 47 48 48 48 53 52 51 51 51 53 54 55 54 55 59 53 46 49 49 43 40 41 40 37 44 61 48 54 59 64 66 70 66 73 75 77 81 73
38 39 37 37 40 44 47 47 48 46 46 47 48 50 53 54 54 54 56 60 63 61 62 61 61 51 45 45 42 38 45 59 57 62 66 64 65 70 69 71 71 72 72
35 36 38 39 41 45 46 44 44 43 43 43 45 47 50 52 56 61 64 60 65 70 72 70 70 71 67 52 44 42 38 41 48 56 64 69 63 70 69 71 67 77 81
35 38 40 42 46 48 47 47 47 44 43 45 46 47 50 52 54 58 64 65 70 70 71 74 69 70 70 71 58 46 39 35 37 41 51 59 72 85 73 71 69 76 74
31 34 36 37 40 42 43 43 44 44 42 40 42 46 44 48 47 49 57 59 60 62 63 65 62 61 66 67 64 55 45 26 23 23 27 39 51 62 70 70 73 66 68
25 26 30 32 36 40 41 43 43 43 42 39 41 42 41 42 44 45 40 41 49 53 55 53 55 53 47 53 53 46 39 25 9 10 7 16 29 34 44 44 47 52 57
Wind_Direction_850mb
296 279 278 269 259 257 251 243 230 223 219 219 219 216 217 219 211 211 215 218 220 222 224 226 225 222 217 217 226 228 228 227 223 224 236 246 249 250 252 248 244 248 248
297 293 277 268 262 254 251 243 234 222 215 219 223 223 223 221 224 222 224 224 225 224 226 227 222 225 217 220 227 226 226 226 228 224 233 246 254 252 247 244 244 245 239
298 293 279 268 262 254 249 244 234 222 215 217 210 214 217 210 212 221 220 220 223 226 227 226 221 223 223 227 233 231 232 227 233 225 226 225 243 249 249 240 238 243 248
320 303 281 265 261 253 250 243 231 221 217 211 209 206 211 206 214 220 218 216 220 218 225 223 226 226 229 230 237 240 240 233 238 235 237 237 243 221 244 243 240 231 244
333 335 325 264 259 251 244 244 230 222 215 214 209 207 210 216 216 213 217 219 224 219 223 222 223 224 219 218 246 266 262 253 248 250 242 240 241 241 245 254 233 238 250
345 353 9 3 293 246 246 235 227 220 213 211 204 204 205 202 201 207 213 222 226 224 227 229 227 221 205 200 253 272 273 267 267 258 247 239 235 239 234 239 242 242 249
349 360 20 16 20 69 101 153 190 195 192 198 197 197 198 199 205 215 223 228 227 224 223 225 227 229 230 257 257 240 241 253 256 260 251 250 244 246 242 243 243 237 243
356 6 17 26 32 55 65 92 123 158 174 183 186 193 197 206 199 211 220 225 220 223 230 227 230 237 242 237 242 220 227 241 250 259 254 252 249 249 241 249 251 237 242
359 7 19 27 34 43 56 81 88 109 129 140 150 156 166 175 184 207 211 210 201 210 206 209 220 231 236 235 225 222 231 243 251 254 255 252 250 248 242 247 243 238 240
2 9 18 28 36 41 45 51 72 81 95 105 127 127 135 157 185 190 195 202 203 206 215 218 221 226 222 219 228 234 242 248 252 254 250 250 248 245 241 249 247 241 245
4 8 15 33 39 46 45 48 66 75 79 71 89 103 130 145 158 164 185 201 212 220 226 230 231 234 239 241 243 246 248 251 254 253 249 251 248 243 248 249 248 240 238
13 19 17 29 34 37 39 49 55 64 62 56 63 75 98 122 139 162 191 223 235 242 241 241 245 248 248 249 249 250 249 248 250 250 252 247 245 246 247 249 252 245 241
16 23 24 28 35 37 43 44 52 60 63 55 54 56 57 50 54 51 271 275 274 265 257 258 256 257 257 256 254 253 250 251 248 246 248 250 244 241 244 249 252 245 239
14 19 19 25 32 34 35 38 42 45 47 48 44 33 33 30 15 345 314 291 277 273 265 261 261 260 261 260 258 253 253 248 249 248 247 249 248 241 249 248 248 244 240
13 14 14 18 29 32 32 32 41 40 34 36 41 32 36 24 12 358 340 324 310 297 284 273 265 262 261 261 261 260 252 252 253 252 248 250 245 245 247 247 244 242 242
8 12 15 16 21 26 30 26 34 29 26 42 44 22 35 27 11 1 350 336 321 311 300 290 281 274 268 262 258 252 248 250 254 252 252 249 249 247 245 244 245 247 245
2 7 11 14 19 22 20 27 28 20 25 30 19 27 28 23 18 9 355 343 336 327 318 305 294 283 277 275 268 251 242 240 248 247 249 246 241 247 244 242 247 247 249
360 1 5 11 17 22 26 24 20 20 28 25 22 24 23 21 19 13 2 351 344 341 337 328 317 305 297 280 265 253 238 240 245 249 249 246 243 248 244 242 241 238 238
1 1 3 9 15 19 23 27 26 23 23 24 20 22 20 17 16 11 3 2 357 351 347 338 327 320 306 290 270 254 242 245 243 253 249 247 245 251 249 244 239 235 228
6 4 2 6 15 18 20 26 26 26 27 24 23 22 19 18 17 14 7 7 6 359 351 347 338 329 316 306 289 256 247 246 250 252 245 247 248 249 247 237 237 233 222
6 9 11 10 12 16 19 23 23 25 23 23 23 22 21 20 19 18 15 15 15 7 4 2 355 345 338 323 309 266 259 256 248 255 255 253 251 251 240 236 241 223 220
6 9 11 12 11 15 17 19 21 18 20 23 26 26 24 22 19 18 19 19 16 17 16 12 9 1 352 343 331 314 266 262 259 261 258 258 255 250 252 237 228 223 219
8 9 8 7 10 13 13 14 14 13 16 18 23 25 26 23 21 19 19 15 15 15 13 14 9 5 2 355 347 337 310 279 265 261 259 251 255 240 241 221 218 225 217
6 7 10 11 9 11 8 7 8 8 9 12 16 18 22 23 22 23 22 17 15 15 11 9 8 5 2 2 359 354 339 326 301 272 259 256 242 231 217 214 208 218 221
9 7 8 9 9 8 5 3 6 8 9 8 10 13 15 19 22 25 23 23 22 17 13 11 6 1 3 359 356 353 348 345 325 275 228 217 210 203 207 204 212 207 202
13 11 9 9 9 11 9 7 8 8 9 10 12 11 13 16 16 18 23 23 25 25 24 20 15 12 2 1 1 0 356 343 12 288 224 162 170 179 177 187 188 186 196